DW5338 Weather Reports


Display with metric or nautical units.
time (UTC)temp
F
wind
direction
speed
MPH
gust
MPH
rain 1hr
in
rain 24hr
in
rain mn
in
humidity
%
barometer
mb
20260510032516 38 113 2.0 4.0 0.00 0.00 0.00 89 1022.2
20260510031559 38 90 2.0 6.0 0.00 0.00 0.00 89 1022.0
20260510030516 38 68 3.0 8.0 0.00 0.00 0.00 89 1021.4
20260510025519 38 68 3.0 12.0 0.00 0.00 0.00 89 1021.0
20260510023515 38 68 7.0 14.0 0.00 0.00 0.00 88 1020.5
20260510022519 39 68 7.0 14.0 0.00 0.00 0.00 88 1020.3
20260510021519 39 45 9.0 17.0 0.00 0.00 0.00 87 1020.1
20260510020521 40 68 9.0 17.0 0.00 0.00 0.00 84 1019.5
20260510015556 40 45 8.0 18.0 0.00 0.00 0.00 82 1019.1
20260510014516 42 68 9.0 18.0 0.00 0.00 0.00 77 1018.8
20260510013516 43 90 8.0 15.0 0.00 0.00 0.00 74 1018.3
20260510012539 45 113 8.0 17.0 0.00 0.00 0.00 69 1018.1
20260510011516 46 90 7.0 15.0 0.00 0.00 0.00 64 1018.0
20260510010516 49 68 9.0 14.0 0.00 0.00 0.00 57 1017.9
20260510005516 56 68 7.0 18.0 0.00 0.00 0.00 14 1018.3
20260510004516 58 293 8.0 14.0 0.00 0.00 0.00 14 1018.3
20260510003515 58 293 11.0 18.0 0.00 0.00 0.00 14 1018.1
20260510002539 59 293 8.0 13.0 0.00 0.00 0.00 15 1018.3
20260510001539 59 270 13.0 24.0 0.00 0.00 0.00 13 1018.2
20260510000519 59 270 15.0 26.0 0.00 0.00 0.00 14 1018.1
20260509235515 59 293 11.0 20.0 0.00 0.00 0.00 16 1018.0
20260509234515 59 315 10.0 20.0 0.00 0.00 0.00 16 1018.0
20260509233516 59 270 10.0 17.0 0.00 0.00 0.00 15 1018.0
20260509232516 59 293 13.0 23.0 0.00 0.00 0.00 15 1017.8
20260509231515 60 270 9.0 17.0 0.00 0.00 0.00 14 1017.6
20260509230515 60 270 5.0 11.0 0.00 0.00 0.00 16 1017.7
20260509225515 60 270 12.0 19.0 0.00 0.00 0.00 14 1017.6
20260509224515 61 293 16.0 26.0 0.00 0.00 0.00 13 1017.7
20260509223515 62 270 9.0 19.0 0.00 0.00 0.00 14 1017.6
20260509222519 62 293 14.0 22.0 0.00 0.00 0.00 11 1017.7
20260509221519 62 270 14.0 24.0 0.00 0.00 0.00 11 1017.7
20260509220519 63 293 12.0 20.0 0.00 0.00 0.00 14 1017.7
20260509215519 62 270 10.0 21.0 0.00 0.00 0.00 13 1017.9
20260509214515 63 270 11.0 19.0 0.00 0.00 0.00 11 1017.8
20260509213515 62 270 11.0 26.0 0.00 0.00 0.00 17 1018.0
20260509212515 61 270 12.0 20.0 0.00 0.00 0.00 15 1017.9
20260509211516 61 270 13.0 29.0 0.00 0.00 0.00 16 1017.7
20260509210515 62 270 14.0 23.0 0.00 0.00 0.00 15 1018.1
20260509205515 61 270 15.0 31.0 0.00 0.00 0.00 15 1018.1
20260509204515 62 270 12.0 24.0 0.00 0.00 0.00 16 1018.2
20260509203516 61 293 15.0 28.0 0.00 0.00 0.00 16 1018.0
20260509202515 61 270 16.0 28.0 0.00 0.00 0.00 16 1018.0
20260509201536 61 293 15.0 26.0 0.00 0.00 0.00 18 1018.1
20260509200516 61 293 13.0 20.0 0.00 0.00 0.00 18 1018.2
20260509195535 60 293 15.0 30.0 0.00 0.00 0.00 19 1018.2
20260509194515 60 293 12.0 23.0 0.00 0.00 0.00 18 1018.3
20260509193539 60 270 8.0 20.0 0.00 0.00 0.00 19 1017.8
20260509192519 60 293 7.0 16.0 0.00 0.00 0.00 18 1017.9
20260509191559 60 270 11.0 18.0 0.00 0.00 0.00 18 1017.7
20260509190515 58 270 16.0 29.0 0.00 0.00 0.00 20 1017.7
20260509185535 58 293 18.0 25.0 0.00 0.00 0.00 20 1017.7
20260509184535 59 293 14.0 23.0 0.00 0.00 0.00 21 1017.8
20260509183535 58 293 16.0 29.0 0.00 0.00 0.00 19 1017.9
20260509182515 58 270 15.0 24.0 0.00 0.00 0.00 19 1018.2
20260509181535 58 270 10.0 17.0 0.00 0.00 0.00 19 1018.1
20260509180515 59 270 9.0 28.0 0.00 0.00 0.00 18 1018.2
20260509175515 58 315 13.0 20.0 0.00 0.00 0.00 17 1017.9
20260509174515 57 293 14.0 22.0 0.00 0.00 0.00 18 1017.9
20260509173515 57 293 15.0 23.0 0.00 0.00 0.00 19 1018.1
20260509172519 58 270 10.0 26.0 0.00 0.00 0.00 22 1018.2
20260509171519 57 315 14.0 29.0 0.00 0.00 0.00 24 1018.2
20260509170519 56 293 12.0 18.0 0.00 0.00 0.00 24 1018.0
20260509165515 57 270 11.0 29.0 0.00 0.00 0.00 25 1018.3
20260509164515 56 270 13.0 24.0 0.00 0.00 0.00 26 1018.2
20260509163515 56 293 11.0 19.0 0.00 0.00 0.00 25 1018.3
20260509162518 56 293 13.0 19.0 0.00 0.00 0.00 24 1018.2
20260509161539 57 270 7.0 14.0 0.00 0.00 0.00 24 1018.1
20260509160535 56 270 8.0 17.0 0.00 0.00 0.00 25 1017.9
20260509155515 56 270 9.0 16.0 0.00 0.00 0.00 25 1017.7
20260509154519 55 270 10.0 20.0 0.00 0.00 0.00 26 1017.5
20260509153515 55 293 13.0 18.0 0.00 0.00 0.00 27 1017.7
20260509152535 55 293 11.0 19.0 0.00 0.00 0.00 27 1017.6
20260509151518 54 293 9.0 15.0 0.00 0.00 0.00 28 1017.4
20260509150518 54 270 5.0 9.0 0.00 0.00 0.00 28 1018.0
20260509145518 53 270 7.0 21.0 0.00 0.00 0.00 30 1017.9
20260509144518 53 270 14.0 25.0 0.00 0.00 0.00 30 1017.8
20260509143518 52 270 4.0 9.0 0.00 0.00 0.00 31 1018.0
20260509142519 52 270 5.0 10.0 0.00 0.00 0.00 35 1018.0
20260509141558 51 293 7.0 11.0 0.00 0.00 0.00 32 1018.0
20260509140515 50 0.0 2.0 0.00 0.00 0.00 39 1018.1
20260509135535 48 158 2.0 5.0 0.00 0.00 0.00 44 1017.9
20260509134515 47 315 1.0 4.0 0.00 0.00 0.00 46 1017.8
20260509133515 48 225 2.0 5.0 0.00 0.00 0.00 42 1018.0
20260509132517 46 270 5.0 8.0 0.00 0.00 0.00 41 1017.7
20260509131517 44 270 5.0 8.0 0.00 0.00 0.00 48 1017.5
20260509130537 45 225 2.0 5.0 0.00 0.00 0.00 47 1017.5
20260509125521 44 293 6.0 10.0 0.00 0.00 0.00 50 1017.4
20260509124520 44 270 3.0 8.0 0.00 0.00 0.00 49 1017.1
20260509123517 45 248 3.0 9.0 0.00 0.00 0.00 47 1017.0
20260509122517 46 270 6.0 10.0 0.00 0.00 0.00 45 1016.8
20260509121537 47 248 5.0 10.0 0.00 0.00 0.00 43 1016.8
20260509120517 47 225 8.0 17.0 0.00 0.00 0.00 44 1016.8
20260509115517 47 248 10.0 17.0 0.00 0.00 0.00 44 1016.7
20260509114537 47 270 16.0 28.0 0.00 0.00 0.00 43 1016.3
20260509113517 47 248 12.0 21.0 0.00 0.00 0.00 46 1016.0
20260509112517 47 248 12.0 20.0 0.00 0.00 0.00 46 1016.1
20260509111517 47 248 11.0 19.0 0.00 0.00 0.00 46 1016.0
20260509110517 47 225 10.0 18.0 0.00 0.00 0.00 45 1016.7
20260509105522 47 248 9.0 16.0 0.00 0.00 0.00 45 1016.9
20260509104517 48 270 8.0 18.0 0.00 0.00 0.00 44 1017.0
20260509103517 47 270 10.0 18.0 0.00 0.00 0.00 44 1016.7
20260509102517 47 270 9.0 15.0 0.00 0.00 0.00 46 1016.6
20260509101520 47 270 11.0 17.0 0.00 0.00 0.00 45 1016.5
20260509100520 48 270 9.0 21.0 0.00 0.00 0.00 44 1016.9
20260509095520 47 270 9.0 18.0 0.00 0.00 0.00 44 1016.9
20260509094517 48 270 9.0 16.0 0.00 0.00 0.00 44 1016.9
20260509093520 48 270 10.0 19.0 0.00 0.00 0.00 42 1016.8
20260509092517 48 270 10.0 17.0 0.00 0.00 0.00 43 1017.0
20260509091516 48 248 9.0 14.0 0.00 0.00 0.00 43 1016.8
20260509090516 48 248 7.0 14.0 0.00 0.00 0.00 44 1016.9
20260509085517 48 248 7.0 16.0 0.00 0.00 0.00 43 1016.8
20260509084517 49 248 8.0 13.0 0.00 0.00 0.00 43 1016.8
20260509083516 49 248 9.0 14.0 0.00 0.00 0.00 43 1016.8
20260509082516 48 270 8.0 14.0 0.00 0.00 0.00 43 1016.6
20260509081516 49 225 9.0 14.0 0.00 0.00 0.00 42 1017.0
20260509080516 49 270 10.0 17.0 0.00 0.00 0.00 43 1016.8
20260509075517 48 248 8.0 14.0 0.00 0.00 0.00 44 1016.8
20260509074517 48 270 9.0 16.0 0.00 0.00 0.00 43 1016.9
20260509073516 48 270 6.0 11.0 0.00 0.00 0.00 44 1016.8
20260509072516 47 248 5.0 9.0 0.00 0.00 0.00 47 1017.0
20260509071520 43 225 5.0 8.0 0.00 0.00 0.00 53 1016.7
20260509070520 42 180 5.0 8.0 0.00 0.00 0.00 59 1016.4
20260509065520 43 203 4.0 7.0 0.00 0.00 0.00 58 1016.7
20260509064516 43 203 5.0 9.0 0.00 0.00 0.00 58 1016.6
20260509063540 44 203 4.0 8.0 0.00 0.00 0.00 55 1016.7
20260509062520 45 270 7.0 14.0 0.00 0.00 0.00 51 1016.6
20260509061520 43 203 3.0 7.0 0.00 0.00 0.00 59 1016.7
20260509060516 43 225 3.0 6.0 0.00 0.00 0.00 59 1016.6
20260509055516 42 225 2.0 6.0 0.00 0.00 0.00 65 1016.5
20260509054516 43 180 4.0 7.0 0.00 0.00 0.00 64 1016.8
20260509053559 43 225 1.0 4.0 0.00 0.00 0.00 64 1016.8
20260509052520 43 203 3.0 5.0 0.00 0.00 0.00 67 1016.9
20260509051520 45 225 3.0 5.0 0.00 0.00 0.00 67 1017.3
20260509050520 45 248 5.0 8.0 0.00 0.00 0.00 65 1017.6
20260509045519 45 270 3.0 7.0 0.00 0.00 0.00 68 1017.7
20260509044536 45 270 5.0 9.0 0.00 0.00 0.00 68 1017.7
20260509043516 45 248 5.0 9.0 0.00 0.00 0.00 69 1017.6
20260509042556 46 270 2.0 4.0 0.00 0.00 0.00 68 1017.7
20260509041516 46 225 3.0 7.0 0.00 0.00 0.00 68 1017.9
20260509040516 46 248 3.0 6.0 0.00 0.00 0.00 68 1018.1
20260509035516 46 248 3.0 5.0 0.00 0.00 0.00 69 1018.3
20260509034516 46 248 3.0 5.0 0.00 0.00 0.00 69 1018.3
20260509033519 46 225 4.0 6.0 0.00 0.00 0.00 69 1018.1